Point Pleasant, WV

10:00 AM EDT on March 23, 2017 (GMT -0400)
Point Pleasant

Weather History for K3I2 - March, 2014

Change the Weather History Date:

Sunday, March 9, 2014

  Actual Average (KHTS) Record (KHTS)
Temperature  
Mean Temperature 42 °F -  
Max Temperature 51 °F 49 °F 79 °F (1974)
Min Temperature 33 °F 30 °F 10 °F (1996)
Degree Days  
Heating Degree Days 23    
Moisture  
Dew Point 27 °F    
Average Humidity 57    
Maximum Humidity 81    
Minimum Humidity 30    
Precipitation  
Precipitation 0.00 in - - ()
Sea Level Pressure  
Sea Level Pressure 30.16 in    
Wind  
Wind Speed 3 mph (WNW)    
Max Wind Speed 12 mph    
Max Gust Speed 17 mph    
Visibility 10 miles    
Events      
Averages and records for this station are not official NWS values.
T = Trace of Precipitation, MM = Missing Value Source: NWS Daily Summary

Daily Weather History Graph

Daily Weather History Graph

Search for Another Location

Airport or City:

Trip Planner

Search our weather history database for the weather conditions in past years. The results will help you decide how hot, cold, wet, or windy it might be!

Date:

Astronomy

Mar. 09, 2014 Rise Set
Actual Time 7:48 AM EDT 7:29 PM EDT
Civil Twilight 7:22 AM EDT 7:56 PM EDT
Nautical Twilight 6:51 AM EDT 8:26 PM EDT
Astronomical Twilight 6:20 AM EDT 8:58 PM EDT
Moon 1:23 PM EDT (3/9) 3:11 AM EDT (3/9)
Length of Visible Light 12h 33m
Length of Day
11h 40m
First Quarter, 61% of the Moon is Illuminated
Mar 9
First Quarter
Mar 16
Full
Mar 23
Last Quarter
Mar 30
New
Apr 7
First Quarter

Hourly Weather History & Observations

Time (EDT) Temp. Windchill Dew Point Humidity Pressure Visibility Wind Dir Wind Speed Gust Speed Precip Events Conditions
12:15 AM 46.4 °F - 35.6 °F 66% 30.11 in 5.0 mi Calm Calm - N/A   Haze
12:35 AM 44.6 °F 41.4 °F 35.6 °F 71% 30.12 in 5.0 mi North 5.8 mph - N/A   Haze
12:55 AM 44.6 °F 41.4 °F 33.8 °F 66% 30.12 in 7.0 mi North 5.8 mph - N/A   Overcast
1:15 AM 44.6 °F 42.2 °F 32.0 °F 61% 30.13 in 7.0 mi North 4.6 mph - N/A   Overcast
1:35 AM 42.8 °F 39.3 °F 32.0 °F 66% 30.14 in 7.0 mi North 5.8 mph - N/A   Overcast
1:55 AM 42.8 °F 41.1 °F 32.0 °F 66% 30.14 in 7.0 mi North 3.5 mph - N/A   Overcast
3:15 AM 42.8 °F 39.3 °F 32.0 °F 66% 30.16 in 10.0 mi North 5.8 mph - N/A   Overcast
3:35 AM 42.8 °F 39.3 °F 30.2 °F 61% 30.16 in 10.0 mi North 5.8 mph - N/A   Overcast
3:55 AM 41.0 °F 39.0 °F 30.2 °F 65% 30.17 in 10.0 mi NNW 3.5 mph - N/A   Overcast
4:15 AM 41.0 °F 39.0 °F 30.2 °F 65% 30.17 in 10.0 mi NNW 3.5 mph - N/A   Overcast
4:35 AM 41.0 °F 38.0 °F 30.2 °F 65% 30.17 in 10.0 mi NNW 4.6 mph - N/A   Overcast
4:55 AM 41.0 °F 38.0 °F 28.4 °F 61% 30.18 in 10.0 mi North 4.6 mph - N/A   Overcast
5:15 AM 41.0 °F 38.0 °F 30.2 °F 65% 30.18 in 10.0 mi North 4.6 mph - N/A   Overcast
5:35 AM 39.2 °F 37.0 °F 28.4 °F 65% 30.19 in 10.0 mi NNW 3.5 mph - N/A   Overcast
5:55 AM 39.2 °F - 28.4 °F 65% 30.20 in 10.0 mi Calm Calm - N/A   Overcast
6:15 AM 39.2 °F 35.0 °F 30.2 °F 70% 30.21 in 10.0 mi North 5.8 mph - N/A   Overcast
6:35 AM 37.4 °F 34.9 °F 30.2 °F 75% 30.22 in 10.0 mi North 3.5 mph - N/A   Overcast
6:55 AM 37.4 °F - 30.2 °F 75% 30.22 in 10.0 mi Calm Calm - N/A   Overcast
7:15 AM 37.4 °F - 28.4 °F 70% 30.23 in 10.0 mi Calm Calm - N/A   Overcast
7:35 AM 37.4 °F 34.9 °F 28.4 °F 70% 30.23 in 10.0 mi NNW 3.5 mph - N/A   Overcast
7:55 AM 37.4 °F - 26.6 °F 65% 30.24 in 10.0 mi Calm Calm - N/A   Overcast
8:15 AM 37.4 °F - 26.6 °F 65% 30.24 in 10.0 mi Calm Calm - N/A   Overcast
8:35 AM 37.4 °F - 26.6 °F 65% 30.26 in 10.0 mi Calm Calm - N/A   Overcast
8:55 AM 37.4 °F - 26.6 °F 65% 30.27 in 10.0 mi Calm Calm - N/A   Overcast
9:15 AM 37.4 °F - 26.6 °F 65% 30.27 in 10.0 mi Calm Calm - N/A   Overcast
9:35 AM 37.4 °F 33.8 °F 26.6 °F 65% 30.28 in 10.0 mi WNW 4.6 mph - N/A   Overcast
9:55 AM 37.4 °F 34.9 °F 26.6 °F 65% 30.27 in 10.0 mi WNW 3.5 mph - N/A   Overcast
10:15 AM 39.2 °F 37.0 °F 24.8 °F 56% 30.27 in 10.0 mi NW 3.5 mph - N/A   Overcast
10:35 AM 39.2 °F - 24.8 °F 56% 30.27 in 10.0 mi Calm Calm - N/A   Overcast
10:55 AM 41.0 °F 38.0 °F 26.6 °F 57% 30.27 in 10.0 mi WSW 4.6 mph - N/A   Overcast
11:15 AM 41.0 °F 39.0 °F 26.6 °F 57% 30.27 in 10.0 mi West 3.5 mph - N/A   Overcast
11:35 AM 41.0 °F 39.0 °F 26.6 °F 57% 30.27 in 10.0 mi West 3.5 mph - N/A   Overcast
11:55 AM 41.0 °F 37.1 °F 26.6 °F 57% 30.27 in 10.0 mi WSW 5.8 mph - N/A   Overcast
12:15 PM 41.0 °F - 26.6 °F 57% 30.27 in 10.0 mi Calm Calm - N/A   Overcast
12:35 PM 42.8 °F 39.3 °F 26.6 °F 53% 30.27 in 10.0 mi WSW 5.8 mph - N/A   Overcast
12:55 PM 46.4 °F 41.1 °F 26.6 °F 46% 30.26 in 10.0 mi SW 11.5 mph 17.3 mph N/A   Overcast
1:15 PM 48.2 °F - 24.8 °F 40% 30.25 in 10.0 mi SW 6.9 mph - N/A   Mostly Cloudy
1:35 PM 48.2 °F - 24.8 °F 40% 30.23 in 10.0 mi West 4.6 mph - N/A   Mostly Cloudy
1:55 PM 46.4 °F 44.3 °F 23.0 °F 40% 30.22 in 10.0 mi SSE 4.6 mph - N/A   Scattered Clouds
2:15 PM 48.2 °F - 24.8 °F 40% 30.21 in 10.0 mi WSW 5.8 mph - N/A   Clear
2:35 PM 50.0 °F - 23.0 °F 35% 30.20 in 10.0 mi Calm Calm - N/A   Clear
3:00 PM 50.0 °F - 23.0 °F 35% 30.19 in 10.0 mi South 6.9 mph - N/A   Clear
3:15 PM 51.8 °F - 24.8 °F 35% 30.17 in 10.0 mi SW 6.9 mph - N/A   Clear
3:35 PM 50.0 °F - 23.0 °F 35% 30.16 in 10.0 mi SSE 5.8 mph - N/A   Clear
3:55 PM 51.8 °F - 23.0 °F 33% 30.15 in 10.0 mi Calm Calm - N/A   Clear
4:15 PM 51.8 °F - 23.0 °F 33% 30.13 in 10.0 mi West 3.5 mph - N/A   Clear
4:35 PM 51.8 °F - 23.0 °F 33% 30.14 in 10.0 mi SW 3.5 mph - N/A   Clear
4:55 PM 51.8 °F - 23.0 °F 33% 30.13 in 10.0 mi SSW 8.1 mph - N/A   Clear
5:15 PM 51.8 °F - 23.0 °F 33% 30.12 in 10.0 mi WNW 3.5 mph - N/A   Clear
5:35 PM 51.8 °F - 23.0 °F 33% 30.11 in 10.0 mi West 6.9 mph - N/A   Clear
5:55 PM 51.8 °F - 21.2 °F 30% 30.11 in 10.0 mi WSW 3.5 mph - N/A   Clear
6:15 PM 51.8 °F - 23.0 °F 33% 30.10 in 10.0 mi WSW 4.6 mph - N/A   Clear
6:35 PM 50.0 °F - 23.0 °F 35% 30.09 in 10.0 mi WSW 6.9 mph - N/A   Clear
6:55 PM 50.0 °F - 23.0 °F 35% 30.09 in 10.0 mi WSW 6.9 mph - N/A   Clear
7:15 PM 48.2 °F - 26.6 °F 43% 30.09 in 10.0 mi WSW 3.5 mph - N/A   Clear
7:40 PM 46.4 °F - 28.4 °F 50% 30.09 in 10.0 mi Calm Calm - N/A   Clear
7:55 PM 44.6 °F - 28.4 °F 53% 30.10 in 10.0 mi Calm Calm - N/A   Clear
8:15 PM 42.8 °F - 26.6 °F 53% 30.09 in 10.0 mi Calm Calm - N/A   Clear
8:35 PM 41.0 °F - 28.4 °F 61% 30.08 in 10.0 mi Calm Calm - N/A   Clear
8:55 PM 41.0 °F - 26.6 °F 57% 30.08 in 10.0 mi Calm Calm - N/A   Clear
9:15 PM 39.2 °F - 28.4 °F 65% 30.08 in 10.0 mi Calm Calm - N/A   Clear
9:35 PM 39.2 °F - 28.4 °F 65% 30.09 in 10.0 mi Calm Calm - N/A   Clear
9:55 PM 37.4 °F - 28.4 °F 70% 30.08 in 10.0 mi Calm Calm - N/A   Clear
10:15 PM 37.4 °F - 28.4 °F 70% 30.08 in 10.0 mi Calm Calm - N/A   Clear
10:35 PM 35.6 °F - 30.2 °F 81% 30.07 in 10.0 mi Calm Calm - N/A   Clear
10:55 PM 35.6 °F - 28.4 °F 75% 30.07 in 10.0 mi Calm Calm - N/A   Clear
11:15 PM 35.6 °F - 28.4 °F 75% 30.06 in 10.0 mi Calm Calm - N/A   Clear
11:35 PM 33.8 °F - 28.4 °F 81% 30.04 in 10.0 mi Calm Calm - N/A   Clear
11:55 PM 33.8 °F - 28.4 °F 81% 30.04 in 10.0 mi Calm Calm - N/A   Clear
12:15 AM 33.8 °F - 28.4 °F 81% 30.04 in 10.0 mi Calm Calm - N/A   Clear
12:35 AM 33.8 °F - 28.4 °F 81% 30.04 in 10.0 mi Calm Calm - N/A   Clear
12:55 AM 33.8 °F - 28.4 °F 81% 30.03 in 10.0 mi Calm Calm - N/A   Clear